Weather History for Santa Barbara, CA

Change the Weather History Date:

Wednesday, November 14, 2012

  Actual Average Record
Temperature  
Mean Temperature 56 °F 57 °F  
Max Temperature 71 °F 69 °F 86 °F (1949)
Min Temperature 41 °F 45 °F 34 °F (1943)
Degree Days  
Heating Degree Days 9 8  
Month to date heating degree days 90 99  
Since 1 July heating degree days 232 316  
Cooling Degree Days 0 0  
Month to date cooling degree days 7 0  
Year to date cooling degree days 220 186  
Growing Degree Days 6 (Base 50)    
Moisture  
Dew Point 35 °F    
Average Humidity 43    
Maximum Humidity 62    
Minimum Humidity 23    
Precipitation  
Precipitation 0.00 in 0.05 in 2.17 in (1953)
Month to date precipitation T 0.69  
Year to date precipitation 6.84 13.96  
Since 1 July precipitation 0.14 1.91  
Sea Level Pressure  
Sea Level Pressure 30.01 in    
Wind  
Wind Speed 2 mph (ESE)    
Max Wind Speed 12 mph    
Max Gust Speed 18 mph    
Visibility 10 miles    
Events      
T = Trace of Precipitation, MM = Missing Value Source: NWS Daily Summary

Daily Weather History Graph

Daily Weather History Graph

Search for Another Location

Airport:

Trip Planner

Search our weather history database for the weather conditions in past years. The results will help you decide how hot, cold, wet, or windy it might be!

Date:

Astronomy

Nov. 14, 2012 Rise Set
Actual Time 6:32 AM PST 4:55 PM PST
Civil Twilight 6:05 AM PST 5:21 PM PST
Nautical Twilight 5:35 AM PST 5:52 PM PST
Astronomical Twilight 5:05 AM PST 6:21 PM PST
Moon 7:24 AM PST (11/14) 5:51 PM PST (11/14)
Length of Visible Light 11h 16m
Length of Day
10h 22m
New Moon, 1% of the Moon is Illuminated
Nov 14
New Moon
Nov 20
First Quarter
Nov 28
Full
Dec 6
Last Quarter
Dec 13
New

Hourly Weather History & Observations

Time (PST) Temp. Dew Point Humidity Pressure Visibility Wind Dir Wind Speed Gust Speed Precip Events Conditions
12:53 AM 45.0 °F 32.0 °F 60% 30.02 in 10.0 mi Calm Calm - N/A   Clear
1:53 AM 42.1 °F 30.9 °F 65% 30.03 in 10.0 mi Calm Calm - N/A   Clear
2:53 AM 45.0 °F 30.0 °F 56% 30.01 in 10.0 mi Calm Calm - N/A   Clear
3:53 AM 44.1 °F 30.9 °F 60% 30.02 in 10.0 mi Calm Calm - N/A   Clear
4:53 AM 43.0 °F 30.0 °F 60% 30.00 in 10.0 mi Calm Calm - N/A   Clear
5:53 AM 43.0 °F 30.0 °F 60% 30.00 in 10.0 mi Calm Calm - N/A   Clear
6:53 AM 44.1 °F 30.0 °F 58% 30.02 in 10.0 mi Calm Calm - N/A   Clear
7:53 AM 50.0 °F 33.1 °F 52% 30.04 in 10.0 mi Calm Calm - N/A   Clear
8:53 AM 63.0 °F 30.0 °F 29% 30.05 in 10.0 mi Calm Calm - N/A   Clear
9:53 AM 68.0 °F 41.0 °F 37% 30.05 in 10.0 mi SSE 4.6 mph - N/A   Clear
10:53 AM 68.0 °F 33.1 °F 27% 30.05 in 10.0 mi Calm Calm - N/A   Clear
11:53 AM 66.9 °F 39.9 °F 37% 30.03 in 10.0 mi SSE 8.1 mph - N/A   Clear
12:53 PM 70.0 °F 39.9 °F 33% 30.01 in 10.0 mi SE 6.9 mph - N/A   Clear
1:53 PM 70.0 °F 43.0 °F 38% 29.99 in 10.0 mi SSE 8.1 mph - N/A   Clear
2:53 PM 70.0 °F 30.9 °F 24% 29.99 in 10.0 mi SE 5.8 mph - N/A   Clear
3:53 PM 70.0 °F 32.0 °F 25% 29.99 in 10.0 mi East 3.5 mph - N/A   Clear
4:53 PM 66.0 °F 35.1 °F 32% 29.99 in 10.0 mi Calm Calm - N/A   Clear
5:53 PM 60.1 °F 37.0 °F 42% 29.99 in 10.0 mi Calm Calm - N/A   Clear
6:53 PM 59.0 °F 37.0 °F 44% 30.01 in 10.0 mi NE 3.5 mph - N/A   Clear
7:53 PM 54.0 °F 37.0 °F 53% 30.01 in 10.0 mi NNW 3.5 mph - N/A   Clear
8:53 PM 55.0 °F 37.0 °F 51% 30.02 in 10.0 mi Calm Calm - N/A   Clear
9:53 PM 54.0 °F 39.0 °F 57% 30.01 in 10.0 mi NNE 3.5 mph - N/A   Clear
10:53 PM 53.1 °F 39.0 °F 59% 30.00 in 10.0 mi Calm Calm - N/A   Clear
11:53 PM 53.1 °F 39.9 °F 61% 29.99 in 10.0 mi Calm Calm - N/A   Clear